Mineola, TX

3:01 AM CDT on July 22, 2017 (GMT -0500)
Mineola

Weather History for KJDD - December, 2012

Change the Weather History Date:

Friday, December 7, 2012

  Actual Average (KTYR) Record (KTYR)
Temperature  
Mean Temperature 62 °F -  
Max Temperature 69 °F 58 °F 83 °F (1939)
Min Temperature 55 °F 40 °F 13 °F (1950)
Degree Days  
Heating Degree Days 3    
Growing Degree Days 12 (Base 50)    
Moisture  
Dew Point 58 °F    
Average Humidity 88    
Maximum Humidity 100    
Minimum Humidity 73    
Precipitation  
Precipitation 0.00 in - - ()
Sea Level Pressure  
Sea Level Pressure 29.86 in    
Wind  
Wind Speed 5 mph (SSW)    
Max Wind Speed 13 mph    
Max Gust Speed 18 mph    
Visibility 7 miles    
Events      
Averages and records for this station are not official NWS values.
T = Trace of Precipitation, MM = Missing Value Source: NWS Daily Summary

Daily Weather History Graph

Daily Weather History Graph

Search for Another Location

Airport or City:

Trip Planner

Search our weather history database for the weather conditions in past years. The results will help you decide how hot, cold, wet, or windy it might be!

Date:

Astronomy

Dec. 07, 2012 Rise Set
Actual Time 7:11 AM CST 5:15 PM CST
Civil Twilight 6:44 AM CST 5:42 PM CST
Nautical Twilight 6:13 AM CST 6:13 PM CST
Astronomical Twilight 5:43 AM CST 6:43 PM CST
Moon 12:49 AM CST (12/7) 12:57 PM CST (12/7)
Length of Visible Light 10h 58m
Length of Day
10h 04m
Last Quarter, 38% of the Moon is Illuminated
Dec 7
Last Quarter
Dec 13
New
Dec 19
First Quarter
Dec 28
Full
Jan 4
Last Quarter

Hourly Weather History & Observations

Time (CST) Temp. Dew Point Humidity Pressure Visibility Wind Dir Wind Speed Gust Speed Precip Events Conditions
12:15 AM 55.4 °F 53.6 °F 94% 29.88 in 5.0 mi SE 3.5 mph - N/A   Overcast
12:35 AM 57.2 °F 55.4 °F 94% 29.88 in 5.0 mi SSE 5.8 mph - N/A   Overcast
12:55 AM 57.2 °F 55.4 °F 94% 29.88 in 5.0 mi SSE 6.9 mph - N/A   Overcast
1:15 AM 57.2 °F 55.4 °F 94% 29.88 in 4.0 mi SSE 6.9 mph - N/A   Overcast
1:35 AM 57.2 °F 57.2 °F 100% 29.88 in 4.0 mi South 6.9 mph - N/A   Overcast
1:55 AM 59.0 °F 57.2 °F 94% 29.87 in 4.0 mi SSE 5.8 mph - N/A   Overcast
2:15 AM 59.0 °F 57.2 °F 94% 29.87 in 3.0 mi South 6.9 mph - N/A   Overcast
2:35 AM 59.0 °F 57.2 °F 94% 29.88 in 3.0 mi South 9.2 mph - N/A   Overcast
2:55 AM 59.0 °F 57.2 °F 94% 29.87 in 4.0 mi South 5.8 mph - N/A   Overcast
3:15 AM 59.0 °F 57.2 °F 94% 29.87 in 5.0 mi South 8.1 mph - N/A   Overcast
3:35 AM 60.8 °F 57.2 °F 88% 29.87 in 5.0 mi South 4.6 mph - N/A   Overcast
3:55 AM 60.8 °F 57.2 °F 88% 29.87 in 5.0 mi South 5.8 mph - N/A   Overcast
4:15 AM 60.8 °F 57.2 °F 88% 29.86 in 5.0 mi South 5.8 mph - N/A   Overcast
4:35 AM 60.8 °F 57.2 °F 88% 29.87 in 5.0 mi South 3.5 mph - N/A   Overcast
4:55 AM 59.0 °F 57.2 °F 94% 29.87 in 5.0 mi Calm Calm - N/A   Overcast
5:15 AM 59.0 °F 57.2 °F 94% 29.87 in 5.0 mi Calm Calm - N/A   Overcast
5:35 AM 59.0 °F 57.2 °F 94% 29.87 in 5.0 mi South 3.5 mph - N/A   Overcast
5:55 AM 59.0 °F 57.2 °F 94% 29.87 in 5.0 mi SSE 5.8 mph - N/A   Overcast
6:15 AM 59.0 °F 57.2 °F 94% 29.88 in 5.0 mi SSE 3.5 mph - N/A   Mostly Cloudy
6:35 AM 59.0 °F 57.2 °F 94% 29.88 in 5.0 mi South 5.8 mph - N/A   Mostly Cloudy
6:55 AM 60.8 °F 57.2 °F 88% 29.88 in 5.0 mi South 4.6 mph - N/A   Overcast
7:15 AM 60.8 °F 57.2 °F 88% 29.87 in 5.0 mi South 4.6 mph - N/A   Overcast
7:35 AM 60.8 °F 57.2 °F 88% 29.88 in 5.0 mi South 4.6 mph - N/A   Overcast
8:15 AM 60.8 °F 57.2 °F 88% 29.89 in 5.0 mi SSW 6.9 mph - N/A   Overcast
8:35 AM 62.6 °F 59.0 °F 88% 29.88 in 5.0 mi South 6.9 mph - N/A   Mostly Cloudy
8:55 AM 62.6 °F 59.0 °F 88% 29.89 in 6.0 mi SSW 8.1 mph - N/A   Mostly Cloudy
9:15 AM 62.6 °F 59.0 °F 88% 29.89 in 7.0 mi SSW 11.5 mph 16.1 mph N/A   Overcast
9:35 AM 64.4 °F 59.0 °F 83% 29.90 in 7.0 mi SW 9.2 mph - N/A   Overcast
9:55 AM 64.4 °F 59.0 °F 83% 29.90 in 8.0 mi SSW 8.1 mph - N/A   Overcast
10:15 AM 64.4 °F 60.8 °F 88% 29.90 in 7.0 mi SW 10.4 mph - N/A   Overcast
10:35 AM 64.4 °F 60.8 °F 88% 29.90 in 7.0 mi SW 8.1 mph - N/A   Overcast
10:55 AM 66.2 °F 60.8 °F 83% 29.89 in 8.0 mi SSW 11.5 mph 17.3 mph N/A   Overcast
11:15 AM 66.2 °F 60.8 °F 83% 29.89 in 8.0 mi SSW 9.2 mph - N/A   Overcast
11:35 AM 66.2 °F 60.8 °F 83% 29.87 in 8.0 mi SSW 12.7 mph 18.4 mph N/A   Overcast
11:55 AM 66.2 °F 60.8 °F 83% 29.87 in 8.0 mi SW 10.4 mph 16.1 mph N/A   Overcast
12:15 PM 66.2 °F 60.8 °F 83% 29.86 in 8.0 mi SW 10.4 mph - N/A   Overcast
12:35 PM 68.0 °F 60.8 °F 78% 29.85 in 8.0 mi SW 9.2 mph - N/A   Overcast
12:55 PM 68.0 °F 60.8 °F 78% 29.84 in 8.0 mi SSW 8.1 mph - N/A   Overcast
1:15 PM 68.0 °F 60.8 °F 78% 29.84 in 9.0 mi SSW 12.7 mph - N/A   Overcast
1:35 PM 68.0 °F 60.8 °F 78% 29.82 in 9.0 mi SSW 6.9 mph - N/A   Overcast
1:55 PM 69.8 °F 60.8 °F 73% 29.82 in 9.0 mi SW 9.2 mph - N/A   Overcast
2:15 PM 69.8 °F 60.8 °F 73% 29.82 in 9.0 mi SSW 11.5 mph - N/A   Overcast
2:35 PM 69.8 °F 60.8 °F 73% 29.82 in 9.0 mi South 9.2 mph - N/A   Overcast
2:55 PM 68.0 °F 60.8 °F 78% 29.82 in 9.0 mi SW 8.1 mph - N/A   Overcast
3:15 PM 68.0 °F 60.8 °F 78% 29.83 in 8.0 mi SSW 8.1 mph - N/A   Overcast
3:35 PM 68.0 °F 60.8 °F 78% 29.83 in 10.0 mi SW 4.6 mph - N/A   Overcast
3:55 PM 69.8 °F 60.8 °F 73% 29.82 in 10.0 mi SW 3.5 mph - N/A   Overcast
4:15 PM 69.8 °F 60.8 °F 73% 29.83 in 10.0 mi South 3.5 mph - N/A   Overcast
4:35 PM 69.8 °F 60.8 °F 73% 29.83 in 10.0 mi Calm Calm - N/A   Overcast
4:55 PM 69.8 °F 60.8 °F 73% 29.83 in 10.0 mi Calm Calm - N/A   Overcast
5:15 PM 68.0 °F 60.8 °F 78% 29.83 in 8.0 mi Calm Calm - N/A   Mostly Cloudy
5:35 PM 68.0 °F 60.8 °F 78% 29.83 in 10.0 mi Calm Calm - N/A   Mostly Cloudy
5:55 PM 66.2 °F 60.8 °F 83% 29.83 in 8.0 mi Calm Calm - N/A   Partly Cloudy
6:15 PM 64.4 °F 60.8 °F 88% 29.83 in 10.0 mi Calm Calm - N/A   Clear
6:35 PM 62.6 °F 59.0 °F 88% 29.83 in 9.0 mi Calm Calm - N/A   Clear
7:15 PM 60.8 °F 57.2 °F 88% 29.84 in 7.0 mi Calm Calm - N/A   Clear
7:35 PM 57.2 °F 55.4 °F 94% 29.84 in 7.0 mi Calm Calm - N/A   Clear
7:55 PM 57.2 °F 57.2 °F 100% 29.84 in 7.0 mi Calm Calm - N/A   Clear
8:15 PM 55.4 °F 55.4 °F 100% 29.85 in 6.0 mi Calm Calm - N/A   Clear
8:35 PM 55.4 °F 55.4 °F 100% 29.85 in 6.0 mi Calm Calm - N/A   Clear
8:55 PM 55.4 °F 55.4 °F 100% 29.86 in 6.0 mi Calm Calm - N/A   Scattered Clouds
9:15 PM 55.4 °F 55.4 °F 100% 29.86 in 7.0 mi Calm Calm - N/A   Overcast
9:55 PM 57.2 °F 57.2 °F 100% 29.87 in 8.0 mi Calm Calm - N/A   Overcast
10:15 PM 59.0 °F 57.2 °F 94% 29.86 in 6.0 mi Calm Calm - N/A   Scattered Clouds
10:35 PM 57.2 °F 57.2 °F 100% 29.86 in 5.0 mi Calm Calm - N/A   Clear
10:55 PM 55.4 °F 55.4 °F 100% 29.87 in 4.0 mi NNW 3.5 mph - N/A   Clear
11:15 PM 57.2 °F 55.4 °F 94% 29.87 in 5.0 mi Calm Calm - N/A   Scattered Clouds
11:35 PM 55.4 °F 55.4 °F 100% 29.87 in 5.0 mi Calm Calm - N/A   Scattered Clouds
11:55 PM 57.2 °F 57.2 °F 100% 29.88 in 5.0 mi Calm Calm - N/A   Mostly Cloudy